Location: Mason-Dixon Star Party
(40.0361°N, 76.9958°W)
Time: 08:34:36
(UTC-04:00)

Daily predictions for brighter satellites

Satellite Brightness Start Highest point End
(mag) Time Altitude Azimuth Time Altitude Azimuth Time Altitude Azimuth
BREEZE-M DEB (TANK) 3.9 20:40:35 10° WNW 20:44:17 59° SSW 20:56:54 10° SE
Lacrosse 5 rocket 2.2 20:50:41 10° WSW 20:54:26 53° NW 20:58:23 10° NE
Cosmos 2098 Rocket 3.4 20:51:40 10° NNW 20:55:00 57° W 20:59:06 10° S
Cosmos 1743 2.7 20:51:10 10° N 20:55:02 72° E 20:58:50 10° SSE
Cosmos 1025 Rocket 3.2 20:50:43 10° S 20:55:07 85° W 20:59:30 10° N
Meteor 1-23 Rocket 4.4 20:50:16 10° S 20:55:44 54° E 21:01:17 10° NNE
Cosmos 2251 Rocket 3.6 20:51:36 10° SSW 20:56:55 88° WNW 21:02:18 10° NNE
Cosmos 1892 Rocket 3.6 20:58:51 10° S 21:03:17 80° E 21:07:46 10° N
ERS-1 Rocket 3.1 20:58:48 10° SSE 21:03:45 65° ENE 21:08:44 10° N
Cosmos 1603 4.4 20:59:25 10° SSE 21:04:18 31° ESE 21:09:11 10° NE
USA 234 4.2 21:00:11 10° E 21:06:12 40° NNE 21:12:15 10° NW
Envisat 3.7 21:03:06 10° SE 21:07:43 37° ENE 21:12:22 10° N
Meteor 2-9 Rocket 4.4 21:04:13 10° N 21:09:49 58° ENE 21:15:31 10° SSE
SJ-11-01 4.3 21:05:16 10° SSE 21:09:52 66° ENE 21:14:31 10° N
Cosmos 1110 Rocket 4.1 21:04:42 10° NNW 21:10:01 81° WSW 21:15:15 10° SSE
USA 186 3.1 21:10:46 10° SSW 21:13:27 34° W 21:16:00 10° NNW
Abrixas rocket 2.4 21:11:55 10° WNW 21:15:21 75° NNE 21:18:26 12° ESE
Meteor 2-4 Rocket 3.8 21:09:35 10° S 21:15:25 82° E 21:21:23 10° N
Okean 2 3.4 21:13:33 10° S 21:17:44 82° E 21:21:56 10° N
Cosmos 2333 Rocket 4.3 21:12:46 10° WSW 21:17:46 32° WNW 21:22:48 10° N
BREEZE M DEB (TANK) 2.8 21:16:35 10° WNW 21:19:43 36° N 21:21:35 10° ENE
Cosmos 2297 4.0 21:14:16 10° NNW 21:19:57 70° WSW 21:25:37 10° SSE
Tsikada Rocket 4.4 21:18:03 10° SSE 21:24:08 47° E 21:30:13 10° NNE
Cosmos 1726 Rocket 4.4 21:23:22 10° NNW 21:27:42 52° W 21:31:58 10° S
Cosmos 1943 4.5 21:25:39 12° SE 21:29:05 20° E 21:33:09 10° NE
H-2A R/B 4.5 21:25:46 10° SSW 21:29:20 33° W 21:32:57 10° NNW
YAOGAN 6 4.2 21:27:50 14° ESE 21:29:58 22° ENE 21:32:53 10° NNE
PSLV R/B 3.6 21:29:23 10° SW 21:32:48 48° SSE 21:36:16 10° E
ISS -2.3 21:30:11 10° S 21:32:54 24° SE 21:35:38 10° ENE
Cosmos 2285 Rocket 4.2 21:28:39 10° NNW 21:34:57 73° WSW 21:41:16 10° S
CZ-2C R/B 2.9 21:37:25 10° SSW 21:39:17 21° W 21:41:08 10° NW
Cosmos 1461 3.0 21:35:04 10° NNW 21:39:22 68° NE 21:42:09 20° SE
MetOp-A 4.5 21:35:19 15° SE 21:39:35 50° ENE 21:44:46 10° N
SPOT 5 2.7 21:36:20 15° SSE 21:39:58 63° ENE 21:44:16 10° N
Cosmos 2058 Rocket 4.0 21:37:11 10° NNW 21:41:24 48° W 21:45:34 10° SSW
Cosmos 1464 Rocket 4.3 21:39:28 10° NNW 21:45:34 68° W 21:51:40 10° S
Cosmos 1602 Rocket 3.5 21:41:52 10° S 21:46:21 85° E 21:50:50 10° N
CZ-4 SHROUD 3.2 21:46:45 20° SSE 21:48:49 88° WSW 21:52:00 10° NNW
H-2A R/B 3.8 21:48:11 12° E 21:50:39 17° ENE 21:53:51 10° NNE
GRACE-1 3.9 21:50:34 10° N 21:53:27 85° W 21:55:07 22° S
Aureole 2 Rocket 3.9 21:49:57 10° SW 21:53:45 43° WNW 21:57:13 10° N
GRACE-2 3.9 21:51:00 10° N 21:53:53 84° W 21:55:33 22° S
Cosmos 1812 Rocket 3.5 21:53:17 10° N 21:57:41 72° E 22:00:27 22° SSE
SPOT 1/Viking Rocket 3.8 21:55:43 22° SE 21:58:55 53° ENE 22:03:56 10° N
Terra 3.5 22:00:40 15° E 22:02:35 19° ENE 22:05:56 10° NNE
Cosmos 2034 Rocket 4.4 21:57:51 10° NNW 22:04:09 66° W 22:10:23 10° S
Cosmos 1634 Rocket 4.3 21:59:32 10° N 22:05:29 48° ENE 22:08:55 24° SE
USA 245 4.3 22:05:43 22° SSE 22:09:45 70° ENE 22:15:02 10° N
H-2A R/B 3.8 22:06:17 10° SSW 22:09:54 27° W 22:13:38 10° NW
Atlas Centaur 2 3.5 22:03:25 10° SW 22:10:30 39° S 22:15:35 20° ESE
SeaSat 1 2.7 22:07:21 21° SSE 22:10:34 67° WSW 22:15:31 10° NNW
ARGOS 3.3 22:10:34 26° SE 22:13:31 58° ENE 22:18:51 10° N
Cosmos 2369 Rocket 2.8 22:08:19 10° N 22:13:44 43° ENE 22:16:29 26° ESE
CZ-4C R/B 4.2 22:12:56 29° ESE 22:14:19 38° ENE 22:18:10 10° N
DEBRIS 2.8 22:11:20 10° WNW 22:15:12 37° SW 22:15:34 35° SSW
CZ-4B R/B 3.5 22:12:55 10° NNE 22:18:02 87° WNW 22:22:53 12° SSW
NAVSTAR 52 R/B(PAM-D 4.3 22:19:06 10° W 22:23:22 59° SSW 22:23:42 55° SSE
NOAA 11 4.2 22:22:44 31° SSE 22:25:23 68° ENE 22:30:47 10° N
Milstar 3 Cent rocket 4.2 22:24:52 10° SW 22:26:47 11° SSW 22:27:55 11° SSW
COSMOS 2455 2.9 22:21:03 10° SSW 22:27:04 80° WNW 22:33:07 10° NNE
Cosmos 1953 4.1 22:31:32 10° NNE 22:34:19 18° ENE 22:34:19 18° ENE
Cosmos 1953 Rocket 3.5 22:35:33 44° SSE 22:36:49 70° E 22:41:14 10° NNE
ATLAS 3B R/B 2.9 22:29:44 10° SSW 22:37:19 64° ESE 22:44:47 10° NE
Meteor 1-22 Rocket 4.2 22:32:14 10° N 22:37:47 67° E 22:40:01 37° SSE
Cosmos 2346 Rocket 4.4 22:36:44 22° S 22:41:00 86° W 22:47:11 10° N
IGS 5A 4.1 22:43:56 39° E 22:44:22 40° ENE 22:48:16 10° N
Cosmos 1066 Rocket 4.3 22:43:48 23° SSW 22:47:25 78° W 22:53:14 10° N
USA 234 3.3 22:45:57 34° SSE 22:48:57 68° SW 22:55:30 10° NW
Cosmos 407 Rocket 3.4 22:49:25 38° S 22:51:26 75° ESE 22:56:40 10° NNE
Cosmos 1346 Rocket 2.9 22:56:00 55° SW 22:56:40 69° W 23:00:36 10° N
DELTA 2 DEB (DPAF) 4.3 22:56:14 49° SSW 22:57:19 69° WSW 23:01:49 10° NNW
Cosmos-2242 3.5 22:53:59 10° N 22:58:13 44° ENE 22:58:21 44° E
SL-23 DEB 4.2 22:52:17 10° SW 22:58:23 59° SE 23:02:05 10° ENE
Lacrosse 4 Rocket 1.1 22:59:11 80° S 22:59:22 84° ESE 23:03:28 10° NNE
SL-24 R/B 4.4 22:54:38 10° N 22:59:34 74° E 23:00:48 52° SSE
ISS -1.7 23:06:11 10° W 23:09:14 36° NNW 23:12:18 10° NE
BREEZE-M DEB (TANK) 4.5 23:07:29 10° WNW 23:09:27 19° NNW 23:09:51 18° N
PSLV R/B 4.3 23:06:50 10° W 23:09:23 43° W 23:09:23 43° W
Cosmos 1954 Rocket 4.0 23:09:47 58° SE 23:10:27 63° ESE 23:15:42 10° NNE
Cosmos 1758 Rocket 3.9 23:10:06 45° SW 23:11:09 59° W 23:15:28 10° N
USA 238 DEB 4.0 23:10:57 43° SE 23:12:02 46° ESE 23:18:42 10° NE
USA 238 4.0 23:11:06 43° SE 23:12:07 45° ESE 23:18:47 10° NE
Cosmos 1943 3.9 23:07:21 11° SW 23:12:39 54° WNW 23:18:15 10° NNE
Cosmos 1842 3.3 23:13:33 70° NNE 23:13:33 70° NNE 23:17:06 10° N
Meteor 1-21 4.3 23:11:19 40° SSW 23:13:31 81° W 23:19:22 10° N
CARTOSAT-1 3.5 23:14:29 71° SW 23:14:47 75° WSW 23:19:08 10° NNW
Cosmos 1758 3.7 23:15:24 10° N 23:19:02 55° NE 23:19:02 55° NE
Cosmos 1943 Rocket 2.3 23:17:02 10° NNW 23:22:33 62° ENE 23:23:31 53° ESE
Spot 4 3.7 23:22:16 73° S 23:22:43 85° WSW 23:27:32 10° NNW
Landsat 7 4.5 23:23:17 40° SW 23:24:10 45° W 23:28:44 10° NNW
H-2A R/B 2.3 23:28:49 50° SW 23:29:34 56° W 23:34:32 10° NNW
Cosmos 1092 Rocket 4.1 23:33:03 51° ESE 23:33:56 55° E 23:40:04 10° NNE
Cosmos 1766 4.3 23:30:42 10° NNW 23:34:21 39° W 23:34:21 39° W
Cosmos 1656 Rocket 4.4 23:34:18 10° N 23:39:42 42° ENE 23:40:41 38° E
Terra 2.4 23:39:33 43° WSW 23:39:58 45° W 23:44:32 10° NNW
Cosmos 1842 Rocket 3.8 23:37:44 10° N 23:41:34 61° NE 23:41:34 61° NE
Cosmos 1570 Rocket 4.1 23:37:52 10° NNW 23:43:13 65° ENE 23:43:34 63° E
Cosmos 1850 Rocket 4.0 23:46:11 64° E 23:46:11 64° E 23:51:03 10° NNE
Nadezhda 4 Rocket 3.9 23:45:01 58° S 23:46:25 87° W 23:52:48 10° N
CZ-4C R/B 3.8 23:54:53 21° E 23:54:53 21° E 23:57:30 10° ENE
